Time,TemperatureF,DewpointF,PressureIn,WindDirection,WindDirectionDegrees,WindSpeedMPH,WindSpeedGustMPH,Humidity,HourlyPrecipIn,Conditions,Clouds,dailyrainin,SoftwareType,DateUTC
2013-07-24 00:03:00,56.7,33.2,29.88,ESE,108,0.0,0.0,41,0.00,,CLR,0.00,VWS V14.01,2013-07-24 05:03:00,
2013-07-24 00:09:00,56.5,33.7,29.88,ESE,108,0.0,0.0,42,0.00,,CLR,0.00,VWS V14.01,2013-07-24 05:09:00,
2013-07-24 00:15:00,56.1,33.4,29.88,ESE,108,0.0,0.0,42,0.00,,CLR,0.00,VWS V14.01,2013-07-24 05:15:00,
2013-07-24 00:20:00,55.9,33.8,29.88,ESE,108,0.0,0.0,43,0.00,,CLR,0.00,VWS V14.01,2013-07-24 05:20:00,
2013-07-24 00:25:00,55.8,33.6,29.88,ESE,108,0.0,0.0,43,0.00,,CLR,0.00,VWS V14.01,2013-07-24 05:25:00,
2013-07-24 00:31:00,55.6,34.0,29.88,ESE,108,0.0,0.0,44,0.00,,CLR,0.00,VWS V14.01,2013-07-24 05:31:00,
2013-07-24 00:36:00,55.4,34.4,29.88,ESE,108,0.0,0.0,45,0.00,,CLR,0.00,VWS V14.01,2013-07-24 05:36:00,
2013-07-24 00:42:00,55.2,34.8,29.88,ESE,108,0.0,0.0,46,0.00,,CLR,0.00,VWS V14.01,2013-07-24 05:42:00,
2013-07-24 00:47:00,55.0,34.7,29.88,ESE,108,0.0,0.0,46,0.00,,CLR,0.00,VWS V14.01,2013-07-24 05:47:00,
2013-07-24 00:53:00,54.9,35.0,29.88,ESE,108,0.0,0.0,47,0.00,,CLR,0.00,VWS V14.01,2013-07-24 05:53:00,
2013-07-24 00:59:00,54.7,34.9,29.88,ESE,108,0.0,0.0,47,0.00,,CLR,0.00,VWS V14.01,2013-07-24 05:59:00,
2013-07-24 01:04:00,54.5,34.7,29.91,ESE,108,0.0,0.0,47,0.00,,CLR,0.00,VWS V14.01,2013-07-24 06:04:00,
2013-07-24 01:10:00,54.5,35.2,29.91,ESE,108,0.0,0.0,48,0.00,,CLR,0.00,VWS V14.01,2013-07-24 06:10:00,
2013-07-24 01:15:00,54.5,35.2,29.91,ESE,108,0.0,0.0,48,0.00,,CLR,0.00,VWS V14.01,2013-07-24 06:15:00,
2013-07-24 01:21:00,54.3,35.6,29.91,ESE,108,0.0,0.0,49,0.00,,CLR,0.00,VWS V14.01,2013-07-24 06:21:00,
2013-07-24 01:26:00,54.3,35.6,29.91,ESE,108,0.0,0.0,49,0.00,,CLR,0.00,VWS V14.01,2013-07-24 06:26:00,
2013-07-24 01:32:00,54.1,35.9,29.91,ESE,108,0.0,0.0,50,0.00,,CLR,0.00,VWS V14.01,2013-07-24 06:32:00,
2013-07-24 01:38:00,54.0,35.8,29.91,ESE,108,0.0,0.0,50,0.00,,CLR,0.00,VWS V14.01,2013-07-24 06:38:00,
2013-07-24 01:43:00,53.8,36.1,29.91,ESE,108,0.0,0.0,51,0.00,,CLR,0.00,VWS V14.01,2013-07-24 06:43:00,
2013-07-24 01:48:00,53.6,35.9,29.88,ESE,108,0.0,0.0,51,0.00,,CLR,0.00,VWS V14.01,2013-07-24 06:48:00,
2013-07-24 01:53:00,53.2,36.1,29.88,ESE,108,0.0,0.0,52,0.00,,CLR,0.00,VWS V14.01,2013-07-24 06:53:00,
2013-07-24 01:58:00,53.1,35.9,29.88,ESE,108,0.0,0.0,52,0.00,,CLR,0.00,VWS V14.01,2013-07-24 06:58:00,
2013-07-24 02:03:00,53.1,36.4,29.88,ESE,108,0.0,0.0,53,0.00,,CLR,0.00,VWS V14.01,2013-07-24 07:03:00,
2013-07-24 02:08:00,52.9,36.2,29.88,ESE,108,0.0,0.0,53,0.00,,CLR,0.00,VWS V14.01,2013-07-24 07:08:00,
2013-07-24 02:14:00,52.7,36.5,29.88,ESE,108,0.0,0.0,54,0.00,,CLR,0.00,VWS V14.01,2013-07-24 07:14:00,
2013-07-24 02:19:00,52.7,36.5,29.88,ESE,108,0.0,0.0,54,0.00,,CLR,0.00,VWS V14.01,2013-07-24 07:19:00,
2013-07-24 02:24:00,52.5,36.8,29.88,ESE,108,0.0,0.0,55,0.00,,CLR,0.00,VWS V14.01,2013-07-24 07:24:00,
2013-07-24 02:30:00,52.3,36.7,29.88,ESE,108,0.0,0.0,55,0.00,,CLR,0.00,VWS V14.01,2013-07-24 07:30:00,
2013-07-24 02:35:00,52.2,37.0,29.88,ESE,108,0.0,0.0,56,0.00,,CLR,0.00,VWS V14.01,2013-07-24 07:35:00,
2013-07-24 02:41:00,52.0,36.8,29.88,ESE,108,0.0,0.0,56,0.00,,CLR,0.00,VWS V14.01,2013-07-24 07:41:00,
2013-07-24 02:46:00,51.8,37.1,29.88,ESE,108,0.0,0.0,57,0.00,,CLR,0.00,VWS V14.01,2013-07-24 07:46:00,
2013-07-24 02:51:00,51.6,37.3,29.88,ESE,108,0.0,0.0,58,0.00,,CLR,0.00,VWS V14.01,2013-07-24 07:51:00,
2013-07-24 02:56:00,51.6,37.3,29.88,ESE,108,0.0,0.0,58,0.00,,CLR,0.00,VWS V14.01,2013-07-24 07:56:00,
2013-07-24 03:01:00,51.6,37.8,29.88,ESE,108,0.0,0.0,59,0.00,,CLR,0.00,VWS V14.01,2013-07-24 08:01:00,
2013-07-24 03:06:00,51.6,37.8,29.88,ESE,108,0.0,0.0,59,0.00,,CLR,0.00,VWS V14.01,2013-07-24 08:06:00,
2013-07-24 03:11:00,51.6,38.2,29.88,ESE,108,0.0,0.0,60,0.00,,CLR,0.00,VWS V14.01,2013-07-24 08:11:00,
2013-07-24 03:17:00,51.4,38.0,29.88,ESE,108,0.0,0.0,60,0.00,,CLR,0.00,VWS V14.01,2013-07-24 08:17:00,
2013-07-24 03:23:00,51.3,37.9,29.88,ESE,108,0.0,0.0,60,0.00,,CLR,0.00,VWS V14.01,2013-07-24 08:23:00,
2013-07-24 03:28:00,51.3,38.3,29.88,ESE,108,0.0,0.0,61,0.00,,CLR,0.00,VWS V14.01,2013-07-24 08:28:00,
2013-07-24 03:33:00,51.1,38.1,29.91,ESE,108,0.0,0.0,61,0.00,,CLR,0.00,VWS V14.01,2013-07-24 08:33:00,
2013-07-24 03:39:00,50.9,38.4,29.91,ESE,108,0.0,0.0,62,0.00,,CLR,0.00,VWS V14.01,2013-07-24 08:39:00,
2013-07-24 03:45:00,51.1,39.3,29.91,ESE,108,0.0,0.0,64,0.00,,CLR,0.00,VWS V14.01,2013-07-24 08:45:00,
2013-07-24 03:51:00,51.1,39.3,29.91,ESE,108,0.0,0.0,64,0.00,,CLR,0.00,VWS V14.01,2013-07-24 08:51:00,
2013-07-24 03:56:00,51.1,39.3,29.91,ESE,108,0.0,0.0,64,0.00,,CLR,0.00,VWS V14.01,2013-07-24 08:56:00,
2013-07-24 04:02:00,50.9,39.2,29.91,ESE,108,0.0,0.0,64,0.00,,CLR,0.00,VWS V14.01,2013-07-24 09:02:00,
2013-07-24 04:07:00,50.7,39.4,29.91,ESE,108,0.0,0.0,65,0.00,,CLR,0.00,VWS V14.01,2013-07-24 09:07:00,
2013-07-24 04:12:00,50.7,39.8,29.91,ESE,108,0.0,0.0,66,0.00,,CLR,0.00,VWS V14.01,2013-07-24 09:12:00,
2013-07-24 04:17:00,50.7,40.2,29.91,ESE,108,0.0,0.0,67,0.00,,CLR,0.00,VWS V14.01,2013-07-24 09:17:00,
2013-07-24 04:22:00,50.7,40.2,29.91,ESE,108,0.0,0.0,67,0.00,,CLR,0.00,VWS V14.01,2013-07-24 09:22:00,
2013-07-24 04:27:00,50.9,40.7,29.91,ESE,108,0.0,0.0,68,0.00,,CLR,0.00,VWS V14.01,2013-07-24 09:27:00,
2013-07-24 04:33:00,51.1,40.9,29.91,ESE,108,0.0,0.0,68,0.00,,CLR,0.00,VWS V14.01,2013-07-24 09:33:00,
2013-07-24 04:38:00,51.3,41.5,29.91,ESE,108,0.0,0.0,69,0.00,,CLR,0.00,VWS V14.01,2013-07-24 09:38:00,
2013-07-24 04:43:00,51.4,41.6,29.91,ESE,108,0.0,0.0,69,0.00,,CLR,0.00,VWS V14.01,2013-07-24 09:43:00,
2013-07-24 04:48:00,51.6,42.2,29.91,ESE,108,0.0,0.0,70,0.00,,CLR,0.00,VWS V14.01,2013-07-24 09:48:00,
2013-07-24 04:53:00,51.8,42.3,29.91,ESE,108,0.0,0.0,70,0.00,,CLR,0.00,VWS V14.01,2013-07-24 09:53:00,
2013-07-24 04:58:00,52.0,42.5,29.91,ESE,108,0.0,0.0,70,0.00,,CLR,0.00,VWS V14.01,2013-07-24 09:58:00,
2013-07-24 05:04:00,52.3,43.2,29.93,ESE,108,0.0,0.0,71,0.00,,CLR,0.00,VWS V14.01,2013-07-24 10:04:00,
2013-07-24 05:09:00,52.3,43.2,29.93,ESE,108,0.0,0.0,71,0.00,,CLR,0.00,VWS V14.01,2013-07-24 10:09:00,
2013-07-24 05:15:00,52.5,43.4,29.93,ESE,108,0.0,0.0,71,0.00,,CLR,0.00,VWS V14.01,2013-07-24 10:15:00,
2013-07-24 05:20:00,52.5,43.4,29.93,ESE,108,0.0,0.0,71,0.00,,CLR,0.00,VWS V14.01,2013-07-24 10:20:00,
2013-07-24 05:26:00,52.5,43.4,29.93,ESE,108,0.0,0.0,71,0.00,,CLR,0.00,VWS V14.01,2013-07-24 10:26:00,
2013-07-24 05:31:00,52.5,43.8,29.93,ESE,108,0.0,0.0,72,0.00,,CLR,0.00,VWS V14.01,2013-07-24 10:31:00,
2013-07-24 05:37:00,52.7,43.9,29.93,ESE,108,0.0,0.0,72,0.00,,CLR,0.00,VWS V14.01,2013-07-24 10:37:00,
2013-07-24 05:43:00,52.7,43.9,29.93,ESE,108,0.0,0.0,72,0.00,,CLR,0.00,VWS V14.01,2013-07-24 10:43:00,
2013-07-24 05:48:00,52.7,44.3,29.93,ESE,108,0.0,0.0,73,0.00,,CLR,0.00,VWS V14.01,2013-07-24 10:48:00,
2013-07-24 05:54:00,52.9,44.5,29.93,ESE,108,0.0,0.0,73,0.00,,CLR,0.00,VWS V14.01,2013-07-24 10:54:00,
2013-07-24 05:59:00,52.9,44.5,29.93,ESE,108,0.0,0.0,73,0.00,,CLR,0.00,VWS V14.01,2013-07-24 10:59:00,
2013-07-24 06:05:00,53.1,44.7,29.93,ESE,108,0.0,0.0,73,0.00,,CLR,0.00,VWS V14.01,2013-07-24 11:05:00,
2013-07-24 06:11:00,53.1,45.0,29.93,ESE,108,0.0,0.0,74,0.00,,CLR,0.00,VWS V14.01,2013-07-24 11:11:00,
2013-07-24 06:16:00,53.2,45.2,29.93,ESE,108,0.0,0.0,74,0.00,,CLR,0.00,VWS V14.01,2013-07-24 11:16:00,
2013-07-24 06:21:00,53.4,45.3,29.93,ESE,108,0.0,0.0,74,0.00,,CLR,0.00,VWS V14.01,2013-07-24 11:21:00,
2013-07-24 06:26:00,53.4,45.3,29.93,ESE,108,0.0,0.0,74,0.00,,CLR,0.00,VWS V14.01,2013-07-24 11:26:00,
2013-07-24 06:32:00,53.6,45.5,29.93,ESE,108,0.0,0.0,74,0.00,,CLR,0.00,VWS V14.01,2013-07-24 11:32:00,
2013-07-24 06:37:00,53.6,45.5,29.93,ESE,108,0.0,0.0,74,0.00,,CLR,0.00,VWS V14.01,2013-07-24 11:37:00,
2013-07-24 06:43:00,53.8,45.7,29.93,ESE,108,0.0,0.0,74,0.00,,CLR,0.00,VWS V14.01,2013-07-24 11:43:00,
2013-07-24 06:49:00,54.0,45.9,29.93,ESE,108,0.0,0.0,74,0.00,,CLR,0.00,VWS V14.01,2013-07-24 11:49:00,
2013-07-24 06:54:00,54.3,46.6,29.93,ESE,108,0.0,0.0,75,0.00,,CLR,0.00,VWS V14.01,2013-07-24 11:54:00,
2013-07-24 06:59:00,54.5,46.8,29.93,ESE,108,0.0,0.0,75,0.00,,CLR,0.00,VWS V14.01,2013-07-24 11:59:00,
2013-07-24 07:04:00,54.9,47.1,29.93,ESE,108,0.0,0.0,75,0.00,,CLR,0.00,VWS V14.01,2013-07-24 12:04:00,
2013-07-24 07:09:00,55.2,47.5,29.93,ESE,108,0.0,0.0,75,0.00,,CLR,0.00,VWS V14.01,2013-07-24 12:09:00,
2013-07-24 07:15:00,55.6,47.8,29.93,ESE,108,0.0,0.0,75,0.00,,CLR,0.00,VWS V14.01,2013-07-24 12:15:00,
2013-07-24 07:21:00,55.9,48.1,29.93,ESE,108,0.0,0.0,75,0.00,,CLR,0.00,VWS V14.01,2013-07-24 12:21:00,
2013-07-24 07:26:00,56.7,49.2,29.93,ESE,108,0.0,0.0,76,0.00,,CLR,0.00,VWS V14.01,2013-07-24 12:26:00,
2013-07-24 07:32:00,57.0,49.2,29.93,ESE,108,0.0,0.0,75,0.00,,CLR,0.00,VWS V14.01,2013-07-24 12:32:00,
2013-07-24 07:38:00,57.6,49.7,29.93,ESE,108,0.0,0.0,75,0.00,,,0.00,VWS V14.01,2013-07-24 12:38:00,
2013-07-24 07:44:00,58.1,50.2,29.93,ESE,108,0.0,0.0,75,0.00,,,0.00,VWS V14.01,2013-07-24 12:44:00,
2013-07-24 07:49:00,58.3,50.0,29.93,ESE,108,0.0,0.0,74,0.00,,,0.00,VWS V14.01,2013-07-24 12:49:00,
2013-07-24 07:54:00,58.6,50.4,29.93,ESE,108,0.0,0.0,74,0.00,,,0.00,VWS V14.01,2013-07-24 12:54:00,
2013-07-24 08:00:00,58.8,49.8,29.93,ESE,108,0.0,0.0,72,0.00,,,0.00,VWS V14.01,2013-07-24 13:00:00,
2013-07-24 08:06:00,59.2,49.8,29.93,ESE,108,0.0,0.0,71,0.00,,,0.00,VWS V14.01,2013-07-24 13:06:00,
2013-07-24 08:12:00,59.5,49.4,29.93,North,8,0.0,0.0,69,0.00,,,0.00,VWS V14.01,2013-07-24 13:12:00,
2013-07-24 08:17:00,59.9,48.1,29.93,NNE,12,0.0,0.0,65,0.00,,,0.00,VWS V14.01,2013-07-24 13:17:00,
2013-07-24 08:22:00,60.3,46.8,29.93,NNE,24,0.0,0.0,61,0.00,,,0.00,VWS V14.01,2013-07-24 13:22:00,
2013-07-24 08:27:00,60.4,45.2,29.93,NNE,19,3.6,4.9,57,0.00,,,0.00,VWS V14.01,2013-07-24 13:27:00,
2013-07-24 08:32:00,60.4,43.2,29.96,NNE,20,0.0,0.0,53,0.00,,,0.00,VWS V14.01,2013-07-24 13:32:00,
2013-07-24 08:38:00,60.6,40.8,29.96,North,10,2.7,4.0,48,0.00,,,0.00,VWS V14.01,2013-07-24 13:38:00,
2013-07-24 08:44:00,60.8,39.3,29.96,North,10,0.0,3.1,45,0.00,,,0.00,VWS V14.01,2013-07-24 13:44:00,
2013-07-24 08:49:00,61.0,39.5,29.96,North,0,0.0,0.0,45,0.00,,,0.00,VWS V14.01,2013-07-24 13:49:00,
2013-07-24 08:55:00,61.3,39.3,29.96,ENE,58,0.0,3.1,44,0.00,,,0.00,VWS V14.01,2013-07-24 13:55:00,
2013-07-24 09:00:00,61.3,39.3,29.96,NNE,18,4.9,4.9,44,0.00,,,0.00,VWS V14.01,2013-07-24 14:00:00,
2013-07-24 09:05:00,61.5,37.0,29.96,NNE,15,0.0,2.7,40,0.00,,CLR,0.00,VWS V14.01,2013-07-24 14:05:00,
2013-07-24 09:11:00,61.7,37.2,29.96,NNE,15,0.0,0.0,40,0.00,,CLR,0.00,VWS V14.01,2013-07-24 14:11:00,
2013-07-24 09:16:00,61.7,37.2,29.96,NNE,15,0.0,0.0,40,0.00,,CLR,0.00,VWS V14.01,2013-07-24 14:16:00,
2013-07-24 09:22:00,62.1,36.2,29.96,NNE,14,2.2,2.2,38,0.00,,CLR,0.00,VWS V14.01,2013-07-24 14:22:00,
2013-07-24 09:27:00,62.2,35.7,29.96,North,353,3.1,3.6,37,0.00,,CLR,0.00,VWS V14.01,2013-07-24 14:27:00,
2013-07-24 09:32:00,62.6,36.0,29.96,NNE,17,4.9,4.9,37,0.00,,CLR,0.00,VWS V14.01,2013-07-24 14:32:00,
2013-07-24 09:37:00,62.8,34.8,29.96,NNW,327,3.6,4.0,35,0.00,,CLR,0.00,VWS V14.01,2013-07-24 14:37:00,
2013-07-24 09:43:00,62.8,34.8,29.96,NE,43,4.9,4.9,35,0.00,,CLR,0.00,VWS V14.01,2013-07-24 14:43:00,
2013-07-24 09:48:00,63.1,35.1,29.99,NNW,329,0.0,0.0,35,0.00,,CLR,0.00,VWS V14.01,2013-07-24 14:48:00,
2013-07-24 09:53:00,63.5,34.7,29.99,North,350,3.1,4.0,34,0.00,,CLR,0.00,VWS V14.01,2013-07-24 14:53:00,
2013-07-24 09:58:00,63.7,34.8,29.99,WNW,290,0.0,0.0,34,0.00,,CLR,0.00,VWS V14.01,2013-07-24 14:58:00,
2013-07-24 10:03:00,63.9,35.0,29.99,North,353,0.0,0.0,34,0.00,,BKN028,0.00,VWS V14.01,2013-07-24 15:03:00,
2013-07-24 10:08:00,64.2,35.3,29.99,NNE,20,5.4,7.6,34,0.00,,BKN028,0.00,VWS V14.01,2013-07-24 15:08:00,
2013-07-24 10:13:00,64.6,34.8,29.99,North,10,3.1,5.4,33,0.00,,BKN028,0.00,VWS V14.01,2013-07-24 15:13:00,
2013-07-24 10:19:00,64.6,34.1,29.96,North,10,4.0,8.7,32,0.00,,BKN028,0.00,VWS V14.01,2013-07-24 15:19:00,
2013-07-24 10:25:00,64.4,32.3,29.96,NNW,332,6.3,6.3,30,0.00,,BKN028,0.00,VWS V14.01,2013-07-24 15:25:00,
2013-07-24 10:31:00,64.4,32.3,29.96,NNE,19,2.7,4.9,30,0.00,,BKN028,0.00,VWS V14.01,2013-07-24 15:31:00,
2013-07-24 10:36:00,64.8,32.6,29.96,North,357,4.0,4.0,30,0.00,,BKN028,0.00,VWS V14.01,2013-07-24 15:36:00,
2013-07-24 10:41:00,65.1,32.1,29.96,NNW,345,8.1,8.1,29,0.00,,BKN028,0.00,VWS V14.01,2013-07-24 15:41:00,
2013-07-24 10:47:00,64.4,33.1,29.96,NE,35,2.7,3.1,31,0.00,,BKN028,0.00,VWS V14.01,2013-07-24 15:47:00,
2013-07-24 10:52:00,64.2,33.8,29.96,North,357,0.0,0.0,32,0.00,,BKN028,0.00,VWS V14.01,2013-07-24 15:52:00,
2013-07-24 10:58:00,64.0,32.0,29.96,NNE,18,5.4,5.4,30,0.00,,BKN028,0.00,VWS V14.01,2013-07-24 15:58:00,
2013-07-24 11:03:00,64.0,32.0,29.96,North,357,5.4,5.4,30,0.00,,BKN039,0.00,VWS V14.01,2013-07-24 16:03:00,
2013-07-24 11:08:00,64.2,32.2,29.96,NNE,22,2.7,3.1,30,0.00,,BKN039,0.00,VWS V14.01,2013-07-24 16:08:00,
2013-07-24 11:14:00,64.8,32.6,29.96,NNW,343,2.7,5.4,30,0.00,,BKN039,0.00,VWS V14.01,2013-07-24 16:14:00,
2013-07-24 11:19:00,64.9,32.0,29.99,NNE,32,7.6,8.3,29,0.00,,BKN039,0.00,VWS V14.01,2013-07-24 16:19:00,
2013-07-24 11:24:00,65.3,30.5,29.99,NNE,26,5.4,5.4,27,0.00,,BKN039,0.00,VWS V14.01,2013-07-24 16:24:00,
2013-07-24 11:29:00,65.5,30.6,29.99,NNE,21,5.8,5.8,27,0.00,,BKN039,0.00,VWS V14.01,2013-07-24 16:29:00,
2013-07-24 11:34:00,65.7,29.9,29.99,North,6,4.0,4.0,26,0.00,,BKN039,0.00,VWS V14.01,2013-07-24 16:34:00,
2013-07-24 11:40:00,65.7,29.9,29.99,NNE,22,5.4,5.8,26,0.00,,BKN039,0.00,VWS V14.01,2013-07-24 16:40:00,
2013-07-24 11:46:00,65.5,29.7,29.96,NW,310,2.2,4.0,26,0.00,,BKN039,0.00,VWS V14.01,2013-07-24 16:46:00,
2013-07-24 11:51:00,65.5,29.7,29.96,North,357,4.0,5.8,26,0.00,,BKN039,0.00,VWS V14.01,2013-07-24 16:51:00,
2013-07-24 11:57:00,65.3,28.6,29.96,NNW,346,2.7,4.0,25,0.00,,BKN039,0.00,VWS V14.01,2013-07-24 16:57:00,
2013-07-24 12:02:00,65.5,29.7,29.96,North,6,0.0,0.0,26,0.00,,BKN036,0.00,VWS V14.01,2013-07-24 17:02:00,
2013-07-24 12:08:00,66.2,30.3,29.96,NNW,340,0.0,3.1,26,0.00,,BKN036,0.00,VWS V14.01,2013-07-24 17:08:00,
2013-07-24 12:14:00,66.4,29.5,29.96,NNE,12,4.0,6.3,25,0.00,,BKN036,0.00,VWS V14.01,2013-07-24 17:14:00,
2013-07-24 12:19:00,66.0,29.2,29.96,North,1,4.0,4.0,25,0.00,,BKN036,0.00,VWS V14.01,2013-07-24 17:19:00,
2013-07-24 12:25:00,66.7,28.8,29.96,NW,312,4.0,5.8,24,0.00,,BKN036,0.00,VWS V14.01,2013-07-24 17:25:00,
2013-07-24 12:30:00,67.1,29.1,29.96,NW,326,0.0,2.2,24,0.00,,BKN036,0.00,VWS V14.01,2013-07-24 17:30:00,
2013-07-24 12:35:00,67.1,29.1,29.99,North,1,5.4,6.3,24,0.00,,BKN036,0.00,VWS V14.01,2013-07-24 17:35:00,
2013-07-24 12:40:00,67.1,29.1,29.99,North,10,5.8,5.8,24,0.00,,BKN036,0.00,VWS V14.01,2013-07-24 17:40:00,
2013-07-24 12:46:00,68.2,30.0,29.96,North,7,5.4,5.4,24,0.00,,BKN036,0.00,VWS V14.01,2013-07-24 17:46:00,
2013-07-24 12:51:00,68.5,29.3,29.96,North,353,5.4,5.8,23,0.00,,BKN036,0.00,VWS V14.01,2013-07-24 17:51:00,
2013-07-24 12:57:00,68.0,28.9,29.96,North,357,4.0,5.8,23,0.00,,BKN036,0.00,VWS V14.01,2013-07-24 17:57:00,
2013-07-24 13:03:00,68.2,29.0,29.99,NNE,14,3.1,5.8,23,0.00,,BKN040,0.00,VWS V14.01,2013-07-24 18:03:00,
2013-07-24 13:08:00,68.9,29.6,29.99,SSE,153,0.0,0.0,23,0.00,,BKN040,0.00,VWS V14.01,2013-07-24 18:08:00,
2013-07-24 13:13:00,69.8,29.3,29.99,NNE,24,5.4,7.6,22,0.00,,BKN040,0.00,VWS V14.01,2013-07-24 18:13:00,
2013-07-24 13:18:00,70.2,29.6,29.96,NNE,20,4.0,4.9,22,0.00,,BKN040,0.00,VWS V14.01,2013-07-24 18:18:00,
2013-07-24 13:23:00,70.2,29.6,29.96,NNE,14,4.0,4.0,22,0.00,,BKN040,0.00,VWS V14.01,2013-07-24 18:23:00,
2013-07-24 13:28:00,69.8,29.3,29.96,NNE,20,0.0,0.0,22,0.00,,BKN040,0.00,VWS V14.01,2013-07-24 18:28:00,
2013-07-24 13:33:00,69.3,28.8,29.93,East,97,0.0,0.0,22,0.00,,BKN040,0.00,VWS V14.01,2013-07-24 18:33:00,
2013-07-24 13:39:00,69.4,30.1,29.93,NNE,24,0.0,4.0,23,0.00,,BKN040,0.00,VWS V14.01,2013-07-24 18:39:00,
2013-07-24 13:45:00,69.6,29.1,29.93,North,6,4.0,4.0,22,0.00,,BKN040,0.00,VWS V14.01,2013-07-24 18:45:00,
2013-07-24 13:50:00,69.4,30.1,29.93,NNW,335,4.0,4.0,23,0.00,,BKN040,0.00,VWS V14.01,2013-07-24 18:50:00,
2013-07-24 13:55:00,68.5,29.3,29.93,NNE,15,0.0,4.0,23,0.00,,BKN040,0.00,VWS V14.01,2013-07-24 18:55:00,
2013-07-24 14:01:00,68.5,29.3,29.93,North,353,5.8,5.8,23,0.00,,FEW038,0.00,VWS V14.01,2013-07-24 19:01:00,
2013-07-24 14:07:00,68.0,27.8,29.93,NNW,330,4.0,5.4,22,0.00,,FEW038,0.00,VWS V14.01,2013-07-24 19:07:00,
2013-07-24 14:13:00,68.4,29.1,29.93,NNW,338,3.1,5.4,23,0.00,,FEW038,0.00,VWS V14.01,2013-07-24 19:13:00,
2013-07-24 14:18:00,69.4,29.0,29.93,North,357,4.9,8.1,22,0.00,,FEW038,0.00,VWS V14.01,2013-07-24 19:18:00,
2013-07-24 14:24:00,69.4,29.0,29.93,NNE,30,0.0,0.0,22,0.00,,FEW038,0.00,VWS V14.01,2013-07-24 19:24:00,
2013-07-24 14:29:00,69.4,30.1,29.93,ENE,70,3.1,3.1,23,0.00,,FEW038,0.00,VWS V14.01,2013-07-24 19:29:00,
2013-07-24 14:34:00,69.6,30.2,29.93,North,4,0.0,0.0,23,0.00,,FEW038,0.00,VWS V14.01,2013-07-24 19:34:00,
2013-07-24 14:39:00,69.6,30.2,29.93,NNE,23,0.0,0.0,23,0.00,,FEW038,0.00,VWS V14.01,2013-07-24 19:39:00,
2013-07-24 14:45:00,70.0,29.4,29.93,North,353,3.1,3.6,22,0.00,,FEW038,0.00,VWS V14.01,2013-07-24 19:45:00,
2013-07-24 14:50:00,70.5,29.9,29.93,North,357,0.0,0.0,22,0.00,,FEW038,0.00,VWS V14.01,2013-07-24 19:50:00,
2013-07-24 14:56:00,72.0,31.1,29.93,NE,46,0.0,3.1,22,0.00,,FEW038,0.00,VWS V14.01,2013-07-24 19:56:00,
2013-07-24 15:02:00,73.0,32.0,29.93,NE,35,4.0,4.9,22,0.00,,CLR,0.00,VWS V14.01,2013-07-24 20:02:00,
2013-07-24 15:08:00,73.0,30.8,29.93,NNE,16,0.0,0.0,21,0.00,,CLR,0.00,VWS V14.01,2013-07-24 20:08:00,
2013-07-24 15:13:00,72.0,29.9,29.93,NNE,16,0.0,0.0,21,0.00,,CLR,0.00,VWS V14.01,2013-07-24 20:13:00,
2013-07-24 15:18:00,71.1,30.3,29.93,NNE,16,2.7,3.6,22,0.00,,CLR,0.00,VWS V14.01,2013-07-24 20:18:00,
2013-07-24 15:24:00,70.9,30.2,29.93,NE,47,2.7,3.6,22,0.00,,CLR,0.00,VWS V14.01,2013-07-24 20:24:00,
2013-07-24 15:29:00,72.0,29.9,29.93,NNE,30,4.0,4.9,21,0.00,,CLR,0.00,VWS V14.01,2013-07-24 20:29:00,
2013-07-24 15:34:00,72.1,30.1,29.93,NW,325,2.2,4.0,21,0.00,,CLR,0.00,VWS V14.01,2013-07-24 20:34:00,
2013-07-24 15:40:00,72.1,30.1,29.93,WSW,242,3.6,3.6,21,0.00,,CLR,0.00,VWS V14.01,2013-07-24 20:40:00,
2013-07-24 15:45:00,72.7,30.5,29.93,SW,235,0.0,0.0,21,0.00,,CLR,0.00,VWS V14.01,2013-07-24 20:45:00,
2013-07-24 15:50:00,74.1,31.7,29.96,North,6,0.0,2.2,21,0.00,,CLR,0.00,VWS V14.01,2013-07-24 20:50:00,
2013-07-24 15:55:00,74.7,32.2,29.96,North,353,3.6,5.8,21,0.00,,CLR,0.00,VWS V14.01,2013-07-24 20:55:00,
2013-07-24 16:00:00,73.4,31.1,29.96,ENE,59,3.1,3.6,21,0.00,,CLR,0.00,VWS V14.01,2013-07-24 21:00:00,
2013-07-24 16:05:00,73.8,31.4,29.93,West,275,2.2,4.0,21,0.00,,CLR,0.00,VWS V14.01,2013-07-24 21:05:00,
2013-07-24 16:10:00,73.0,30.8,29.93,SW,222,0.0,0.0,21,0.00,,CLR,0.00,VWS V14.01,2013-07-24 21:10:00,
2013-07-24 16:16:00,72.5,30.4,29.93,WNW,292,0.0,0.0,21,0.00,,CLR,0.00,VWS V14.01,2013-07-24 21:16:00,
2013-07-24 16:21:00,72.1,30.1,29.93,NNE,30,0.0,0.0,21,0.00,,CLR,0.00,VWS V14.01,2013-07-24 21:21:00,
2013-07-24 16:27:00,71.6,29.6,29.93,NNE,30,0.0,0.0,21,0.00,,CLR,0.00,VWS V14.01,2013-07-24 21:27:00,
2013-07-24 16:33:00,72.3,30.2,29.93,NNE,12,0.0,0.0,21,0.00,,CLR,0.00,VWS V14.01,2013-07-24 21:33:00,
2013-07-24 16:38:00,73.0,30.8,29.93,NNE,21,0.0,0.0,21,0.00,,CLR,0.00,VWS V14.01,2013-07-24 21:38:00,
2013-07-24 16:43:00,74.1,27.9,29.93,NNW,335,3.6,3.6,18,0.00,,CLR,0.00,VWS V14.01,2013-07-24 21:43:00,
2013-07-24 16:48:00,73.6,27.5,29.91,West,271,0.0,0.0,18,0.00,,CLR,0.00,VWS V14.01,2013-07-24 21:48:00,
2013-07-24 16:53:00,73.0,28.4,29.91,North,1,0.0,0.0,19,0.00,,CLR,0.00,VWS V14.01,2013-07-24 21:53:00,
2013-07-24 16:59:00,71.8,27.3,29.91,SW,221,4.0,4.0,19,0.00,,CLR,0.00,VWS V14.01,2013-07-24 21:59:00,
2013-07-24 17:05:00,72.3,27.8,29.91,WSW,252,0.0,0.0,19,0.00,,CLR,0.00,VWS V14.01,2013-07-24 22:05:00,
2013-07-24 17:11:00,73.6,27.5,29.91,SW,228,0.0,0.0,18,0.00,,CLR,0.00,VWS V14.01,2013-07-24 22:11:00,
2013-07-24 17:16:00,73.6,27.5,29.91,North,8,3.1,3.1,18,0.00,,CLR,0.00,VWS V14.01,2013-07-24 22:16:00,
2013-07-24 17:21:00,73.4,27.4,29.91,NNE,29,3.1,5.4,18,0.00,,CLR,0.00,VWS V14.01,2013-07-24 22:21:00,
2013-07-24 17:26:00,73.2,28.5,29.91,NNE,29,5.8,5.8,19,0.00,,CLR,0.00,VWS V14.01,2013-07-24 22:26:00,
2013-07-24 17:31:00,73.6,27.5,29.91,NNW,341,4.0,4.0,18,0.00,,CLR,0.00,VWS V14.01,2013-07-24 22:31:00,
2013-07-24 17:37:00,73.2,28.5,29.91,North,3,0.0,0.0,19,0.00,,CLR,0.00,VWS V14.01,2013-07-24 22:37:00,
2013-07-24 17:42:00,73.8,27.6,29.91,North,6,0.0,0.0,18,0.00,,CLR,0.00,VWS V14.01,2013-07-24 22:42:00,
2013-07-24 17:47:00,74.8,28.5,29.93,North,353,0.0,0.0,18,0.00,,CLR,0.00,VWS V14.01,2013-07-24 22:47:00,
2013-07-24 17:52:00,74.8,28.5,29.93,North,353,0.0,0.0,18,0.00,,CLR,0.00,VWS V14.01,2013-07-24 22:52:00,
2013-07-24 17:58:00,74.8,28.5,29.93,NNE,20,0.0,0.0,18,0.00,,CLR,0.00,VWS V14.01,2013-07-24 22:58:00,
2013-07-24 18:04:00,75.4,29.0,29.91,SW,219,3.6,3.6,18,0.00,,CLR,0.00,VWS V14.01,2013-07-24 23:04:00,
2013-07-24 18:09:00,75.2,28.8,29.91,SSE,152,0.0,0.0,18,0.00,,CLR,0.00,VWS V14.01,2013-07-24 23:09:00,
2013-07-24 18:14:00,75.0,28.7,29.91,SSE,159,0.0,0.0,18,0.00,,CLR,0.00,VWS V14.01,2013-07-24 23:14:00,
2013-07-24 18:19:00,75.2,28.8,29.91,SSE,156,0.0,2.7,18,0.00,,CLR,0.00,VWS V14.01,2013-07-24 23:19:00,
2013-07-24 18:24:00,75.0,28.7,29.91,South,191,0.0,0.0,18,0.00,,CLR,0.00,VWS V14.01,2013-07-24 23:24:00,
2013-07-24 18:30:00,74.3,28.1,29.91,South,173,0.0,0.0,18,0.00,,CLR,0.00,VWS V14.01,2013-07-24 23:30:00,
2013-07-24 18:36:00,74.5,28.2,29.91,SE,143,0.0,3.1,18,0.00,,CLR,0.00,VWS V14.01,2013-07-24 23:36:00,
2013-07-24 18:42:00,74.7,28.4,29.91,South,176,0.0,0.0,18,0.00,,CLR,0.00,VWS V14.01,2013-07-24 23:42:00,
2013-07-24 18:47:00,74.7,28.4,29.91,SSE,162,2.2,3.6,18,0.00,,CLR,0.00,VWS V14.01,2013-07-24 23:47:00,
2013-07-24 18:52:00,74.1,27.9,29.91,SSW,213,2.7,4.0,18,0.00,,CLR,0.00,VWS V14.01,2013-07-24 23:52:00,
2013-07-24 18:57:00,73.0,28.4,29.91,SW,222,3.1,4.5,19,0.00,,CLR,0.00,VWS V14.01,2013-07-24 23:57:00,
2013-07-24 19:02:00,72.0,27.5,29.91,SSW,209,4.0,4.0,19,0.00,,FEW110,0.00,VWS V14.01,2013-07-25 00:02:00,
2013-07-24 19:08:00,70.9,26.6,29.91,SW,230,0.0,0.0,19,0.00,,FEW110,0.00,VWS V14.01,2013-07-25 00:08:00,
2013-07-24 19:14:00,70.7,26.5,29.91,South,171,0.0,0.0,19,0.00,,FEW110,0.00,VWS V14.01,2013-07-25 00:14:00,
2013-07-24 19:19:00,70.7,26.5,29.91,SSW,195,0.0,0.0,19,0.00,,FEW110,0.00,VWS V14.01,2013-07-25 00:19:00,
2013-07-24 19:24:00,70.7,30.0,29.91,SSW,212,0.0,0.0,22,0.00,,FEW110,0.00,VWS V14.01,2013-07-25 00:24:00,
2013-07-24 19:29:00,70.5,29.9,29.91,SSE,152,0.0,0.0,22,0.00,,FEW110,0.00,VWS V14.01,2013-07-25 00:29:00,
2013-07-24 19:35:00,70.0,29.4,29.91,South,173,0.0,0.0,22,0.00,,FEW110,0.00,VWS V14.01,2013-07-25 00:35:00,
2013-07-24 19:40:00,69.4,29.0,29.91,South,174,0.0,0.0,22,0.00,,FEW110,0.00,VWS V14.01,2013-07-25 00:40:00,
2013-07-24 19:45:00,69.1,28.7,29.91,SSE,164,0.0,0.0,22,0.00,,FEW110,0.00,VWS V14.01,2013-07-25 00:45:00,
2013-07-24 19:50:00,68.9,28.5,29.91,SSE,164,0.0,0.0,22,0.00,,FEW110,0.00,VWS V14.01,2013-07-25 00:50:00,
2013-07-24 19:55:00,68.7,28.4,29.91,SSE,164,0.0,0.0,22,0.00,,FEW110,0.00,VWS V14.01,2013-07-25 00:55:00,
2013-07-24 20:00:00,68.4,28.1,29.91,South,170,0.0,0.0,22,0.00,,FEW110,0.00,VWS V14.01,2013-07-25 01:00:00,
2013-07-24 20:05:00,68.2,29.0,29.91,South,170,0.0,0.0,23,0.00,,CLR,0.00,VWS V14.01,2013-07-25 01:05:00,
2013-07-24 20:11:00,67.8,28.7,29.91,South,170,0.0,0.0,23,0.00,,CLR,0.00,VWS V14.01,2013-07-25 01:11:00,
2013-07-24 20:17:00,67.5,29.4,29.91,South,170,0.0,0.0,24,0.00,,CLR,0.00,VWS V14.01,2013-07-25 01:17:00,
2013-07-24 20:23:00,66.9,29.0,29.91,South,170,0.0,0.0,24,0.00,,CLR,0.00,VWS V14.01,2013-07-25 01:23:00,
2013-07-24 20:28:00,66.7,28.8,29.91,South,170,0.0,0.0,24,0.00,,CLR,0.00,VWS V14.01,2013-07-25 01:28:00,
2013-07-24 20:33:00,66.4,29.5,29.91,South,170,0.0,0.0,25,0.00,,CLR,0.00,VWS V14.01,2013-07-25 01:33:00,
2013-07-24 20:39:00,65.8,30.0,29.91,South,170,0.0,0.0,26,0.00,,CLR,0.00,VWS V14.01,2013-07-25 01:39:00,
2013-07-24 20:45:00,65.5,29.7,29.91,South,170,0.0,0.0,26,0.00,,CLR,0.00,VWS V14.01,2013-07-25 01:45:00,
2013-07-24 20:50:00,65.1,30.3,29.91,South,170,0.0,0.0,27,0.00,,CLR,0.00,VWS V14.01,2013-07-25 01:50:00,
2013-07-24 20:56:00,64.8,30.0,29.91,South,170,0.0,0.0,27,0.00,,CLR,0.00,VWS V14.01,2013-07-25 01:56:00,
2013-07-24 21:01:00,64.4,30.6,29.91,South,170,0.0,0.0,28,0.00,,CLR,0.00,VWS V14.01,2013-07-25 02:01:00,
2013-07-24 21:06:00,64.0,31.2,29.91,South,170,0.0,0.0,29,0.00,,CLR,0.00,VWS V14.01,2013-07-25 02:06:00,
2013-07-24 21:11:00,63.7,31.7,29.91,South,170,0.0,0.0,30,0.00,,CLR,0.00,VWS V14.01,2013-07-25 02:11:00,
2013-07-24 21:13:00,63.5,31.5,29.91,South,170,0.0,0.0,30,0.00,,CLR,0.00,VWS V14.01,2013-07-25 02:13:00,
2013-07-24 21:18:00,63.1,32.0,29.91,South,170,0.0,0.0,31,0.00,,CLR,0.00,VWS V14.01,2013-07-25 02:18:00,
2013-07-24 21:24:00,62.8,31.7,29.91,South,170,0.0,0.0,31,0.00,,CLR,0.00,VWS V14.01,2013-07-25 02:24:00,
2013-07-24 21:29:00,62.4,32.2,29.91,South,170,0.0,0.0,32,0.00,,CLR,0.00,VWS V14.01,2013-07-25 02:29:00,
2013-07-24 21:35:00,62.1,32.6,29.91,South,170,0.0,0.0,33,0.00,,CLR,0.00,VWS V14.01,2013-07-25 02:35:00,
2013-07-24 21:41:00,61.9,33.2,29.91,South,170,0.0,0.0,34,0.00,,CLR,0.00,VWS V14.01,2013-07-25 02:41:00,
2013-07-24 21:46:00,61.5,32.9,29.91,South,170,0.0,0.0,34,0.00,,CLR,0.00,VWS V14.01,2013-07-25 02:46:00,
2013-07-24 21:52:00,61.3,32.8,29.91,South,170,0.0,0.0,34,0.00,,CLR,0.00,VWS V14.01,2013-07-25 02:52:00,
2013-07-24 21:57:00,61.2,33.3,29.91,South,170,0.0,0.0,35,0.00,,CLR,0.00,VWS V14.01,2013-07-25 02:57:00,
2013-07-24 22:03:00,61.0,33.2,29.91,South,170,0.0,0.0,35,0.00,,CLR,0.00,VWS V14.01,2013-07-25 03:03:00,
2013-07-24 22:09:00,60.8,34.4,29.91,South,170,0.0,0.0,37,0.00,,CLR,0.00,VWS V14.01,2013-07-25 03:09:00,
2013-07-24 22:14:00,60.8,33.7,29.91,South,170,0.0,0.0,36,0.00,,CLR,0.00,VWS V14.01,2013-07-25 03:14:00,
2013-07-24 22:19:00,60.8,33.7,29.91,South,170,0.0,0.0,36,0.00,,CLR,0.00,VWS V14.01,2013-07-25 03:19:00,
2013-07-24 22:24:00,60.8,33.7,29.91,South,170,0.0,0.0,36,0.00,,CLR,0.00,VWS V14.01,2013-07-25 03:24:00,
2013-07-24 22:31:00,60.6,34.2,29.91,South,170,0.0,0.0,37,0.00,,CLR,0.00,VWS V14.01,2013-07-25 03:31:00,
2013-07-24 22:37:00,60.6,34.2,29.91,South,170,0.0,0.0,37,0.00,,CLR,0.00,VWS V14.01,2013-07-25 03:37:00,
2013-07-24 22:42:00,60.4,34.1,29.91,South,170,0.0,0.0,37,0.00,,CLR,0.00,VWS V14.01,2013-07-25 03:42:00,
2013-07-24 22:50:00,60.3,33.9,29.91,South,170,0.0,0.0,37,0.00,,CLR,0.00,VWS V14.01,2013-07-25 03:50:00,
2013-07-24 22:55:00,60.3,33.9,29.91,South,170,0.0,0.0,37,0.00,,CLR,0.00,VWS V14.01,2013-07-25 03:55:00,
2013-07-24 23:01:00,60.1,33.8,29.93,SSE,162,0.0,0.0,37,0.00,,CLR,0.00,VWS V14.01,2013-07-25 04:01:00,
2013-07-24 23:02:00,60.1,33.8,29.93,SSE,162,0.0,0.0,37,0.00,,CLR,0.00,VWS V14.01,2013-07-25 04:02:00,
2013-07-24 23:03:00,60.1,33.8,29.93,SSE,162,0.0,0.0,37,0.00,,CLR,0.00,VWS V14.01,2013-07-25 04:03:00,
2013-07-24 23:05:00,59.9,33.6,29.93,SSE,162,0.0,0.0,37,0.00,,CLR,0.00,VWS V14.01,2013-07-25 04:05:00,
2013-07-24 23:07:00,59.9,34.2,29.93,SE,130,3.1,3.1,38,0.00,,CLR,0.00,VWS V14.01,2013-07-25 04:07:00,
2013-07-24 23:13:00,59.9,34.2,29.93,SSE,153,0.0,0.0,38,0.00,,CLR,0.00,VWS V14.01,2013-07-25 04:13:00,
2013-07-24 23:18:00,59.9,34.2,29.93,SSE,162,0.0,0.0,38,0.00,,CLR,0.00,VWS V14.01,2013-07-25 04:18:00,
2013-07-24 23:23:00,59.9,34.2,29.93,SSE,163,0.0,0.0,38,0.00,,CLR,0.00,VWS V14.01,2013-07-25 04:23:00,
2013-07-24 23:28:00,59.7,34.7,29.93,SSE,164,0.0,0.0,39,0.00,,CLR,0.00,VWS V14.01,2013-07-25 04:28:00,
2013-07-24 23:34:00,59.7,34.7,29.93,SSE,160,0.0,0.0,39,0.00,,CLR,0.00,VWS V14.01,2013-07-25 04:34:00,
2013-07-24 23:39:00,59.7,34.7,29.93,SSE,159,0.0,0.0,39,0.00,,CLR,0.00,VWS V14.01,2013-07-25 04:39:00,
2013-07-24 23:44:00,59.7,35.4,29.93,South,169,0.0,0.0,40,0.00,,CLR,0.00,VWS V14.01,2013-07-25 04:44:00,
2013-07-24 23:49:00,59.7,35.4,29.93,South,172,0.0,0.0,40,0.00,,CLR,0.00,VWS V14.01,2013-07-25 04:49:00,
2013-07-24 23:55:00,59.7,35.4,29.93,SSE,152,0.0,0.0,40,0.00,,CLR,0.00,VWS V14.01,2013-07-25 04:55:00,